星链-1262 (STARLINK-1262 )

导读 | 星芒AI

STARLINK-1262 是 SpaceX Starlink 项目中的一颗低轨通信卫星,属于第 12 批部署的星链卫星之一。该卫星于 2021 年 10 月 31 日由猎鹰 9 号火箭成功送入近地轨道,旨在为全球用户提供高速互联网服务。它运行在约 550 公里的高度,设计寿命约为 5 至 7 年。STARLINK-1262 采用先进的相控阵天线和激光通信技术,提升了网络连接的稳定性和覆盖范围,是 SpaceX 构建全球卫星互联网网络的重要组成部分。

基本信息
目录编号:
45366
目录名称:
STARLINK-1262
国际标识:
2020-019G
轨道中心:
EARTH
卫星名称:
星链-1262
卫星全名:
星链-1262 (STARLINK-1262 )
卫星状态:
在轨 (已飞行2051 天)
发射日期:
2020-03-18 UTC
国别 :
美国 (US)
星等 :
--
轨道信息
数据来源 国际轨道数据
星历时间: 2025-10-28T19:06:14+0800
22小时前
查看轨道信息
半长轴: 6925.392km
偏心率: 0.000163
轨道倾角: 53.055°
近地点辐角 76.940°
升交点赤经 40.197°
平近点角 283.177°
近地点: 546.128km
远地点: 548.386km
周期: 95.593分钟
每日圈数: 15.06386
详细信息
固有亮度:
5
最大亮度:
2.5
卫星平台:
Starlink V1.0
覆盖范围:
全球
运营商:
太空探索技术公司
运营商所在国:
美国
制造商(研发单位):
太空探索技术公司
制造商所在国:
美国
使用方式:
暂无
卫星简介
星链(Starlink)计划是由太空探索技术公司(SpaceX)提出的一个巨型低轨卫星互联网星座项目,计划在2019年至2024年间在太空搭建由约1.2万颗卫星组成的“星链”网络,其中1584颗将部署在地球上空550千米处的近地轨道,并从2020年开始工作。该卫星仍在工作。
2D轨道图
3D轨道图
轨道高度分析图
轨道倾角分析图
轨道综合分析图
查看轨道综合分析图